Regional Weather Roundup
Issued by NWS

Home | Current Version | Previous Version | Graphics & Text | Print | Product List | Glossary On
Versions: 1 2 3 4 5 6 7 8 9 10 11 12 13 14 15 16 17 18 19 20 21 22 23 24 25 26 27 28 29 30 31 32 33 34 35 36 37 38 39 40 41 42 43 44 45 46 47 48 49 50
000
ASUS43 KDTX 292101
RWRMI
MICHIGAN HOURLY REGIONAL WEATHER ROUNDUP
NATIONAL WEATHER SERVICE DETROIT/PONTIAC MI
500 PM EDT TUE JUL 29 2014

NOTE: "FAIR" INDICATES FEW OR NO CLOUDS BELOW 12,000 FEET WITH NO
SIGNIFICANT WEATHER AND/OR OBSTRUCTION TO VISIBILITY.

MIZ047>049-052>055-059>063-066>070-074>076-081>083-292200-
SOUTHEAST LOWER MICHIGAN

CITY           SKY/WX    TMP DP  RH WIND       PRES   REMARKS
ADRIAN         PTSUNNY   73  55  53 W12       29.99S
ALMA           LGT RAIN  69  58  68 NW10      29.94S
ANN ARBOR      PTSUNNY   75  53  46 W13       29.97S
BAD AXE        MOSUNNY   71  58  64 W8        29.92S
CARO           MOSUNNY   71  59  66 W5        29.93S
DETROIT CITY   MOSUNNY   75  53  46 SW12G21   29.95F
DETROIT        CLOUDY    72  55  55 S14       29.96F
FLINT          CLOUDY    67  59  75 SW3       29.95S
GROSSE ILE     MOSUNNY   73  54  49 SW8G16    29.95F
HILLSDALE      PTSUNNY   69  58  67 W7        30.00F
HOWELL         HVY RAIN  65  60  82 NW6       29.97R

CITY           SKY/WX    TMP DP  RH WIND       PRES   REMARKS
JACKSON        PTSUNNY   71  58  63 W10       29.98F
LAMBERTVILLE   CLOUDY    72  52  49 W8        29.98F
LANSING        LGT RAIN  72  54  53 W10       29.96S
LAPEER         MOCLDY    70  55  59 W6        29.95S
MASON          CLOUDY    72  56  58 SW8       29.96S
MONROE         MOSUNNY   73  54  49 W9        29.95F
MT. CLEMENS    PTSUNNY   71  54  54 SW10      29.93F
PONTIAC        LGT RAIN  66  57  72 NE9       29.95S
PORT HOPE        N/A     67  57  70 NE3       29.90F
PORT HURON     MOSUNNY   70  55  60 SW6       29.94S
TRI CITIES     MOSUNNY   72  60  66 SW10      29.93S
TROY           CLOUDY    72  53  52 SW7       29.96S
SAGINAW HB     PTSUNNY   68  55  64 SW7       29.93R
$$
MIZ043>046-050>051-056>058-064>065-071>073-077>080-292200-
SOUTHWEST LOWER MICHIGAN

CITY           SKY/WX    TMP DP  RH WIND       PRES   REMARKS
BATTLE CREEK   MOSUNNY   75  56  51 W14       29.98F
BENTON HARBOR  SUNNY     69  58  67 W8        30.02F
BIG RAPIDS     PTSUNNY   71  52  51 NW16G24   29.95S
COLDWATER      PTSUNNY   67  62  85 S5        29.99S
FREMONT        FAIR      73  49  41 NW14      29.97F
HOLLAND        SUNNY     69  58  67 W10       30.01F
GRAND RAPIDS   MOSUNNY   75  53  46 W16G23    29.97S
IONIA          FAIR      73  55  53 W8        29.95S
KALAMAZOO      MOSUNNY   74  55  51 W14       29.99S
LUDINGTON      MOSUNNY   69  58  68 W5        29.99S
MARSHALL       PTSUNNY   67  61  82 S7        29.97F
MOUNT PLEASANT MOSUNNY   74  57  55 W6        29.93S
MUSKEGON       MOSUNNY   70  55  59 W10       29.99F
SOUTH HAVEN    SUNNY     67  60  78 W9        30.02S
$$
MIZ016>042-292200-
NORTHERN LOWER MICHIGAN

CITY           SKY/WX    TMP DP  RH WIND       PRES   REMARKS
ALPENA         PTSUNNY   72  54  53 NW8       29.90R
BEAVER ISLAND  SUNNY     65  59  79 W13       29.95S
BELLAIRE       SUNNY     68  55  62 NW9       29.95S
CADILLAC       MOSUNNY   69  56  63 NW12G17   29.95S
CHARLEVOIX     MOSUNNY   67  58  72 W13       29.97F
FRANKFORT      PTSUNNY   67  54  62 W6        29.98R
GAYLORD        MOSUNNY   66  51  58 VRB7G18   29.94S
GRAYLING       MOSUNNY   69  55  59 NW13      29.95S
HARBOR SPRINGS MOSUNNY   66  58  74 SW12      29.94S
HOUGHTON LAKE  MOSUNNY   70  54  56 N12G18    29.94S
MANISTEE       MOSUNNY   66  54  63 NW10      29.98F
OSCODA         PTSUNNY   72  57  59 SE8       29.88F
PELLSTON       SUNNY     71  54  54 W12       29.93S
ROGERS CITY    SUNNY     69  57  65 NW10      29.90F
TRAVERSE CITY  PTSUNNY   69  55  60 N8        29.95S
$$
MIZ007>008-015-292200-
EASTERN UPPER MICHIGAN

CITY           SKY/WX    TMP DP  RH WIND       PRES   REMARKS
KINROSS        SUNNY     70  54  56 NW16      29.90S
MACKINAC ISLAN SUNNY     67  56  69 W16       29.91S
NEWBERRY       MOSUNNY   66  52  59 NW12G20   29.93S
S. S. MARIE    SUNNY     64  53  67 NW15G21   29.91S
MUNISING         N/A     60  54  80 N7        29.97F
$$
MIZ004>006-011>014-085-292200-
CENTRAL UPPER MICHIGAN

CITY           SKY/WX    TMP DP  RH WIND       PRES   REMARKS
MANISTIQUE     MOSUNNY   69  55  59 NW14G20   29.94S
ESCANABA       PTSUNNY   66  57  72 E12G18    29.95S
MENOMINEE      MOSUNNY   72  55  56 N9        29.95R
SAWYER-GWINN   LGT RAIN  61  57  88 NE10      29.97S
$$
MIZ001>003-009>011-084-292200-
WESTERN UPPER MICHIGAN

CITY           SKY/WX    TMP DP  RH WIND       PRES   REMARKS
IRON MOUNTAIN  PTSUNNY   73  53  49 NW10      29.95
HOUGHTON       PTSUNNY   62  54  74 NW13      29.98S
COPPER HARBOR    N/A     65  56  72 N16       29.97S
$$

ABBREVIATIONS USED IN REMARKS
   TC - TEMPERATURE IN CELSIUS
  WCI - WIND CHILL INDEX
   HX - HEAT INDEX
  VSB - VISIBILITY



USA.gov is the U.S. government's official web portal to all federal, state and local government web resources and services.